1 Minute Report
Date Time Wind Direction Wind Speed Wind Gust Wind Variable Altimeter Temperature Dewpoint Relative Humidity Visibility Ceiling Precip Present Weather Density Alt Wind Chill Heat Index
17/11/27 13:04 300 07 N/A N/A 30.01 23(F), -5(C) 21(F), -6(C) 92% 10 SCT017 OVC026 N/A N/A N/A 14 F N/A 8008
17/11/27 13:03 300 06 N/A N/A 30.01 23(F), -5(C) 21(F), -6(C) 92% 10 SCT017 OVC026 N/A N/A N/A 15 F N/A 8007
17/11/27 13:02 310 05 N/A N/A 30.01 23(F), -5(C) 21(F), -6(C) 92% 10 SCT017 OVC026 N/A N/A N/A 16 F N/A 8006
17/11/27 13:01 310 05 N/A N/A 30.01 23(F), -5(C) 21(F), -6(C) 92% 10 SCT017 OVC026 N/A N/A N/A 16 F N/A 8005
17/11/27 13:00 320 08 N/A N/A 30.01 23(F), -5(C) 21(F), -6(C) 92% 10 SCT017 BKN026 OVC041 N/A N/A N/A 13 F N/A 8004
17/11/27 12:59 320 08 N/A N/A 30.01 23(F), -5(C) 21(F), -6(C) 92% 10 SCT017 BKN026 OVC041 N/A N/A N/A 13 F N/A 8003
17/11/27 12:58 320 09 N/A N/A 30.01 23(F), -5(C) 21(F), -6(C) 92% 10 SCT017 BKN026 OVC041 N/A N/A N/A 13 F N/A 8002
17/11/27 12:57 320 09 N/A N/A 30.01 23(F), -5(C) 21(F), -6(C) 92% 10 SCT019 BKN026 BKN041 N/A N/A N/A 13 F N/A 8001
17/11/27 12:56 320 08 N/A N/A 30.01 23(F), -5(C) 21(F), -6(C) 92% 10 SCT019 BKN026 BKN041 N/A N/A N/A 13 F N/A 8000
17/11/27 12:55 310 07 N/A N/A 30.01 23(F), -5(C) 21(F), -6(C) 92% 10 SCT019 BKN026 BKN041 N/A N/A N/A 14 F N/A 7999
17/11/27 12:54 310 07 N/A N/A 30.01 23(F), -5(C) 21(F), -6(C) 92% 10 SCT019 BKN026 BKN041 N/A N/A N/A 14 F N/A 7998
17/11/27 12:53 320 09 N/A N/A 30.01 23(F), -5(C) 21(F), -6(C) 92% 10 SCT019 BKN026 BKN041 N/A N/A N/A 13 F N/A 7997
17/11/27 12:52 320 10 N/A N/A 30.01 24(F), -4(C) 21(F), -6(C) 85% 10 SCT019 BKN026 OVC041 N/A N/A N/A 13 F N/A 7996
17/11/27 12:51 310 10 N/A N/A 30.00 24(F), -4(C) 21(F), -6(C) 85% 10 SCT019 BKN026 OVC041 N/A N/A N/A 13 F N/A 7995
17/11/27 12:50 320 10 N/A N/A 30.00 24(F), -4(C) 21(F), -6(C) 85% 10 SCT019 BKN026 OVC041 N/A N/A N/A 13 F N/A 7994
17/11/27 12:49 320 10 N/A N/A 30.00 24(F), -4(C) 21(F), -6(C) 85% 10 SCT019 BKN026 OVC041 N/A N/A N/A 13 F N/A 7993
17/11/27 12:48 310 09 N/A N/A 30.00 24(F), -4(C) 21(F), -6(C) 85% 10 SCT019 BKN026 OVC041 N/A N/A N/A 14 F N/A 7992
17/11/27 12:47 310 08 N/A N/A 30.00 24(F), -4(C) 21(F), -6(C) 85% 10 SCT019 BKN026 OVC041 N/A N/A N/A 15 F N/A 7991
17/11/27 12:46 310 08 N/A N/A 30.00 24(F), -4(C) 21(F), -6(C) 85% 10 SCT019 BKN026 OVC041 N/A N/A N/A 15 F N/A 7990
17/11/27 12:45 310 08 N/A N/A 30.00 24(F), -4(C) 21(F), -6(C) 85% 10 SCT019 BKN026 OVC041 N/A N/A N/A 15 F N/A 7989
17/11/27 12:44 320 08 N/A N/A 30.00 24(F), -4(C) 21(F), -6(C) 85% 10 SCT019 BKN026 OVC041 N/A N/A N/A 15 F N/A 7988
17/11/27 12:43 320 09 14 N/A 30.00 24(F), -4(C) 21(F), -6(C) 85% 10 SCT019 BKN026 OVC041 N/A N/A N/A 14 F N/A 7987
17/11/27 12:42 320 10 14 N/A 30.00 24(F), -4(C) 21(F), -6(C) 85% 10 SCT019 BKN026 OVC041 N/A N/A N/A 13 F N/A 7986
17/11/27 12:41 330 10 14 N/A 30.00 24(F), -4(C) 22(F), -6(C) 85% 10 SCT019 BKN026 OVC041 N/A N/A N/A 13 F N/A 7985
17/11/27 12:40 330 10 14 N/A 30.00 24(F), -4(C) 22(F), -6(C) 85% 10 SCT019 BKN026 OVC041 N/A N/A N/A 13 F N/A 7984
17/11/27 12:39 330 11 14 N/A 30.00 25(F), -4(C) 22(F), -6(C) 85% 10 SCT019 BKN026 OVC041 N/A N/A N/A 14 F N/A 7983
17/11/27 12:38 330 12 N/A N/A 29.99 25(F), -4(C) 22(F), -6(C) 85% 10 SCT019 BKN026 OVC041 N/A N/A N/A 13 F N/A 7982
17/11/27 12:37 320 12 N/A N/A 29.99 25(F), -4(C) 22(F), -6(C) 85% 10 SCT019 BKN026 OVC041 N/A N/A N/A 13 F N/A 7981
17/11/27 12:36 310 11 14 N/A 29.99 25(F), -4(C) 22(F), -6(C) 85% 10 SCT019 BKN026 OVC041 N/A N/A N/A 14 F N/A 7980
17/11/27 12:35 310 10 14 N/A 29.99 25(F), -4(C) 22(F), -6(C) 85% 10 SCT019 BKN026 OVC041 N/A N/A N/A 15 F N/A 7979
17/11/27 12:34 310 10 14 N/A 29.99 25(F), -4(C) 22(F), -6(C) 85% 10 SCT019 BKN026 OVC041 N/A N/A N/A 15 F N/A 7978
17/11/27 12:33 320 08 14 N/A 29.99 25(F), -4(C) 22(F), -6(C) 85% 10 SCT019 BKN026 OVC041 N/A N/A N/A 16 F N/A 7977
17/11/27 12:32 310 10 14 N/A 29.98 25(F), -4(C) 22(F), -6(C) 85% 10 SCT019 BKN026 OVC041 N/A N/A N/A 15 F N/A 7976
17/11/27 12:31 300 10 14 N/A 29.98 25(F), -4(C) 22(F), -6(C) 85% 10 SCT019 BKN026 OVC041 N/A N/A N/A 15 F N/A 7975
17/11/27 12:30 310 08 N/A N/A 29.98 25(F), -4(C) 22(F), -6(C) 85% 10 SCT019 SCT026 OVC041 N/A N/A N/A 16 F N/A 7974
17/11/27 12:29 310 08 14 N/A 29.98 25(F), -4(C) 22(F), -6(C) 85% 10 SCT019 SCT026 OVC041 N/A N/A N/A 16 F N/A 7973
17/11/27 12:28 310 09 14 N/A 29.98 25(F), -4(C) 22(F), -6(C) 85% 10 SCT019 SCT026 OVC041 N/A N/A N/A 15 F N/A 7972
17/11/27 12:27 300 10 16 N/A 29.98 25(F), -4(C) 22(F), -6(C) 85% 10 SCT019 SCT026 OVC041 N/A N/A N/A 15 F N/A 7971
17/11/27 12:26 300 10 16 N/A 29.98 25(F), -4(C) 22(F), -6(C) 85% 10 SCT026 OVC041 N/A N/A N/A 15 F N/A 7970
17/11/27 12:25 310 10 16 N/A 29.98 25(F), -4(C) 22(F), -6(C) 85% 10 SCT026 OVC043 N/A N/A N/A 15 F N/A 7969
17/11/27 12:24 310 10 16 N/A 29.98 25(F), -4(C) 22(F), -6(C) 85% 10 SCT026 OVC043 N/A N/A N/A 15 F N/A 7968
17/11/27 12:23 310 11 16 N/A 29.98 26(F), -3(C) 22(F), -6(C) 79% 10 BKN026 OVC043 N/A N/A N/A 15 F N/A 7967
17/11/27 12:22 310 10 16 N/A 29.98 26(F), -3(C) 22(F), -6(C) 79% 10 BKN026 OVC043 N/A N/A N/A 16 F N/A 7966
17/11/27 12:21 310 11 16 N/A 29.98 26(F), -3(C) 22(F), -6(C) 79% 10 BKN026 OVC043 N/A N/A N/A 15 F N/A 7965
17/11/27 12:20 310 11 16 N/A 29.98 26(F), -3(C) 22(F), -6(C) 79% 10 BKN024 OVC043 N/A N/A N/A 15 F N/A 7964
17/11/27 12:19 310 09 16 N/A 29.98 26(F), -3(C) 22(F), -6(C) 79% 10 BKN024 OVC043 N/A N/A N/A 16 F N/A 7963
17/11/27 12:18 320 11 16 N/A 29.97 26(F), -3(C) 22(F), -6(C) 79% 10 BKN024 BKN029 OVC043 N/A N/A N/A 15 F N/A 7962
17/11/27 12:17 310 10 16 N/A 29.97 26(F), -3(C) 22(F), -6(C) 79% 10 BKN024 OVC043 N/A N/A N/A 16 F N/A 7961
17/11/27 12:16 310 08 15 N/A 29.97 26(F), -3(C) 22(F), -6(C) 79% 10 BKN024 OVC043 N/A N/A N/A 17 F N/A 7960
17/11/27 12:15 310 07 15 N/A 29.97 26(F), -3(C) 22(F), -6(C) 79% 10 BKN024 OVC043 N/A N/A N/A 18 F N/A 7959
17/11/27 12:14 310 07 15 N/A 29.97 26(F), -3(C) 23(F), -5(C) 86% 10 OVC024 N/A N/A N/A 18 F N/A 7958
17/11/27 12:13 310 10 17 N/A 29.97 26(F), -3(C) 23(F), -5(C) 86% 10 OVC024 N/A N/A N/A 16 F N/A 7957
17/11/27 12:12 320 11 17 N/A 29.97 26(F), -3(C) 23(F), -5(C) 86% 10 OVC024 N/A N/A N/A 15 F N/A 7956
17/11/27 12:11 310 10 17 N/A 29.97 26(F), -3(C) 23(F), -5(C) 86% 10 OVC024 N/A N/A N/A 16 F N/A 7955
17/11/27 12:10 310 11 17 N/A 29.97 26(F), -3(C) 23(F), -5(C) 86% 10 BKN024 OVC029 N/A N/A N/A 15 F N/A 7954
17/11/27 12:09 320 10 17 N/A 29.97 26(F), -3(C) 23(F), -5(C) 86% 10 BKN024 OVC029 N/A N/A N/A 16 F N/A 7953
17/11/27 12:08 310 10 17 N/A 29.97 26(F), -3(C) 23(F), -5(C) 86% 10 BKN024 OVC029 N/A N/A N/A 16 F N/A 7952
17/11/27 12:07 310 10 17 N/A 29.97 26(F), -3(C) 23(F), -5(C) 86% 10 BKN024 OVC029 N/A N/A N/A 16 F N/A 7951
17/11/27 12:06 310 11 17 N/A 29.97 26(F), -3(C) 23(F), -5(C) 86% 10 BKN024 OVC029 N/A N/A N/A 15 F N/A 7950
17/11/27 12:05 320 13 17 N/A 29.97 26(F), -3(C) 23(F), -5(C) 86% 10 BKN024 OVC029 N/A N/A N/A 14 F N/A 7949
17/11/27 12:04 320 14 17 N/A 29.97 26(F), -3(C) 23(F), -5(C) 86% 10 BKN024 OVC029 N/A N/A N/A 14 F N/A 7948
17/11/27 12:03 310 11 17 N/A 29.96 26(F), -3(C) 23(F), -5(C) 86% 10 BKN024 OVC029 N/A N/A N/A 15 F N/A 7947
17/11/27 12:02 310 10 N/A N/A 29.96 27(F), -3(C) 23(F), -5(C) 86% 10 OVC024 N/A N/A N/A 17 F N/A 7946
17/11/27 12:01 320 11 N/A N/A 29.96 27(F), -3(C) 24(F), -4(C) 92% 10 OVC024 N/A N/A N/A 16 F N/A 7945
17/11/27 12:00 320 08 N/A N/A 29.96 27(F), -3(C) 24(F), -4(C) 92% 10 OVC022 N/A N/A N/A 18 F N/A 7944
17/11/27 11:59 320 08 N/A N/A 29.96 27(F), -3(C) 24(F), -4(C) 92% 10 OVC022 N/A N/A N/A 18 F N/A 7943
17/11/27 11:58 320 09 14 N/A 29.96 27(F), -3(C) 24(F), -4(C) 92% 10 OVC022 N/A N/A N/A 18 F N/A 7942
17/11/27 11:57 320 09 14 N/A 29.96 27(F), -3(C) 24(F), -4(C) 92% 10 OVC022 N/A N/A N/A 18 F N/A 7941
17/11/27 11:56 320 11 14 N/A 29.96 27(F), -3(C) 25(F), -4(C) 92% 10 OVC022 N/A N/A N/A 16 F N/A 7940
17/11/27 11:55 330 09 14 N/A 29.96 27(F), -3(C) 25(F), -4(C) 92% 10 OVC022 N/A N/A N/A 18 F N/A 7939
17/11/27 11:54 330 08 14 N/A 29.96 27(F), -3(C) 25(F), -4(C) 92% 10 OVC022 N/A N/A N/A 18 F N/A 7938
17/11/27 11:53 330 09 14 N/A 29.96 27(F), -3(C) 25(F), -4(C) 92% 10 OVC022 N/A N/A N/A 18 F N/A 7937
17/11/27 11:52 330 08 14 N/A 29.96 27(F), -3(C) 25(F), -4(C) 92% 10 OVC022 N/A N/A N/A 18 F N/A 7936
17/11/27 11:51 320 07 14 N/A 29.96 27(F), -3(C) 24(F), -4(C) 92% 10 OVC022 N/A N/A N/A 19 F N/A 7935
17/11/27 11:50 320 08 14 N/A 29.96 27(F), -3(C) 24(F), -4(C) 92% 10 OVC022 N/A N/A N/A 18 F N/A 7934
17/11/27 11:49 330 10 14 N/A 29.96 27(F), -3(C) 24(F), -4(C) 92% 10 OVC022 N/A N/A N/A 17 F N/A 7933
17/11/27 11:48 330 09 14 N/A 29.96 27(F), -3(C) 24(F), -4(C) 92% 10 OVC024 N/A N/A N/A 18 F N/A 7932
17/11/27 11:47 330 07 N/A N/A 29.96 27(F), -3(C) 25(F), -4(C) 92% 10 OVC024 N/A N/A N/A 19 F N/A 7931
17/11/27 11:46 340 07 N/A N/A 29.95 27(F), -3(C) 25(F), -4(C) 92% 10 OVC024 N/A N/A N/A 19 F N/A 7930
17/11/27 11:45 330 09 N/A N/A 29.95 27(F), -3(C) 25(F), -4(C) 92% 10 OVC024 N/A N/A N/A 18 F N/A 7929
17/11/27 11:44 320 10 N/A N/A 29.95 27(F), -3(C) 25(F), -4(C) 92% 10 OVC024 N/A N/A N/A 17 F N/A 7928
17/11/27 11:43 330 09 N/A N/A 29.95 27(F), -3(C) 25(F), -4(C) 92% 10 OVC024 N/A N/A N/A 18 F N/A 7927
17/11/27 11:42 330 08 N/A N/A 29.95 27(F), -3(C) 25(F), -4(C) 92% 10 OVC024 N/A N/A N/A 18 F N/A 7926
17/11/27 11:41 330 08 N/A N/A 29.95 28(F), -2(C) 25(F), -4(C) 86% 10 OVC024 N/A N/A N/A 19 F N/A 7925
17/11/27 11:40 330 08 N/A N/A 29.95 28(F), -2(C) 25(F), -4(C) 86% 10 OVC024 N/A N/A N/A 19 F N/A 7924
17/11/27 11:39 330 07 N/A N/A 29.95 28(F), -2(C) 25(F), -4(C) 86% 10 OVC024 N/A N/A N/A 20 F N/A 7923
17/11/27 11:38 330 07 N/A N/A 29.95 28(F), -2(C) 25(F), -4(C) 86% 10 OVC024 N/A N/A N/A 20 F N/A 7922
17/11/27 11:37 330 08 N/A N/A 29.95 28(F), -2(C) 25(F), -4(C) 86% 10 OVC024 N/A N/A N/A 19 F N/A 7921
17/11/27 11:36 320 08 N/A N/A 29.95 28(F), -2(C) 25(F), -4(C) 86% 10 OVC024 N/A N/A N/A 19 F N/A 7920
17/11/27 11:35 320 08 N/A N/A 29.95 28(F), -2(C) 25(F), -4(C) 86% 10 OVC024 N/A N/A N/A 19 F N/A 7919
17/11/27 11:34 320 09 N/A N/A 29.94 28(F), -2(C) 25(F), -4(C) 86% 10 OVC024 N/A N/A N/A 19 F N/A 7918
17/11/27 11:33 320 09 N/A N/A 29.94 28(F), -2(C) 25(F), -4(C) 86% 10 OVC024 N/A N/A N/A 19 F N/A 7917
17/11/27 11:32 320 08 N/A N/A 29.94 28(F), -2(C) 25(F), -4(C) 86% 10 OVC024 N/A N/A N/A 19 F N/A 7916
17/11/27 11:31 310 08 N/A N/A 29.94 28(F), -2(C) 25(F), -4(C) 86% 10 OVC024 N/A N/A N/A 19 F N/A 7915
17/11/27 11:30 310 09 N/A N/A 29.94 28(F), -2(C) 25(F), -4(C) 86% 10 OVC024 N/A N/A N/A 19 F N/A 7914
17/11/27 11:29 310 08 N/A N/A 29.94 28(F), -2(C) 25(F), -4(C) 86% 10 BKN024 OVC033 N/A N/A N/A 19 F N/A 7913
17/11/27 11:28 320 06 N/A N/A 29.94 28(F), -2(C) 25(F), -4(C) 86% 10 BKN024 OVC033 N/A N/A N/A 21 F N/A 7912
17/11/27 11:27 320 06 N/A N/A 29.93 28(F), -2(C) 25(F), -4(C) 86% 10 BKN024 OVC033 N/A N/A N/A 21 F N/A 7911
17/11/27 11:26 320 07 N/A N/A 29.93 28(F), -2(C) 25(F), -4(C) 86% 10 BKN024 OVC033 N/A N/A N/A 20 F N/A 7910
17/11/27 11:25 320 06 N/A N/A 29.93 28(F), -2(C) 25(F), -4(C) 86% 10 BKN024 BKN033 OVC048 N/A N/A N/A 21 F N/A 7909
17/11/27 11:24 320 05 N/A N/A 29.93 28(F), -2(C) 25(F), -4(C) 86% 10 BKN024 BKN033 OVC048 N/A N/A N/A 22 F N/A 7908
17/11/27 11:23 320 05 N/A N/A 29.93 28(F), -2(C) 25(F), -4(C) 86% 10 BKN024 BKN033 OVC048 N/A N/A N/A 22 F N/A 7907
17/11/27 11:22 320 06 N/A N/A 29.93 28(F), -2(C) 25(F), -4(C) 86% 10 BKN024 BKN033 OVC055 N/A N/A N/A 21 F N/A 7906
17/11/27 11:21 320 06 N/A N/A 29.93 28(F), -2(C) 25(F), -4(C) 86% 10 BKN024 BKN033 OVC055 N/A N/A N/A 21 F N/A 7905
17/11/27 11:20 320 06 N/A N/A 29.93 28(F), -2(C) 25(F), -4(C) 86% 10 BKN024 BKN033 OVC055 N/A N/A N/A 21 F N/A 7904
17/11/27 11:19 320 07 N/A N/A 29.93 28(F), -2(C) 25(F), -4(C) 86% 10 BKN024 BKN033 OVC055 N/A N/A N/A 20 F N/A 7903
17/11/27 11:18 320 06 N/A N/A 29.93 28(F), -2(C) 25(F), -4(C) 86% 10 BKN024 BKN033 OVC055 N/A N/A N/A 21 F N/A 7902
17/11/27 11:17 320 07 N/A N/A 29.93 28(F), -2(C) 25(F), -4(C) 86% 10 BKN024 BKN033 OVC055 N/A N/A N/A 20 F N/A 7901
17/11/27 11:16 320 08 N/A N/A 29.92 28(F), -2(C) 25(F), -4(C) 86% 10 BKN024 BKN033 OVC055 N/A N/A N/A 19 F N/A 7900
17/11/27 11:15 320 08 N/A N/A 29.92 28(F), -2(C) 25(F), -4(C) 86% 10 BKN024 BKN033 OVC055 N/A N/A N/A 19 F N/A 7899
17/11/27 11:14 320 08 N/A N/A 29.92 28(F), -2(C) 25(F), -4(C) 86% 10 SCT024 BKN033 OVC055 N/A N/A N/A 19 F N/A 7898
17/11/27 11:13 330 08 N/A N/A 29.92 28(F), -2(C) 25(F), -4(C) 86% 10 SCT024 BKN033 OVC055 N/A N/A N/A 19 F N/A 7897
17/11/27 11:12 330 10 N/A N/A 29.92 28(F), -2(C) 25(F), -4(C) 86% 10 SCT024 BKN033 OVC055 N/A N/A N/A 18 F N/A 7896
17/11/27 11:11 320 09 N/A N/A 29.92 28(F), -2(C) 25(F), -4(C) 86% 10 SCT026 BKN033 OVC055 N/A N/A N/A 19 F N/A 7895
17/11/27 11:10 330 07 N/A N/A 29.92 28(F), -2(C) 25(F), -4(C) 86% 10 SCT026 BKN033 OVC055 N/A N/A N/A 20 F N/A 7894
17/11/27 11:09 330 06 N/A N/A 29.92 28(F), -2(C) 25(F), -4(C) 86% 10 SCT026 BKN033 OVC055 N/A N/A N/A 21 F N/A 7893
17/11/27 11:08 330 07 N/A N/A 29.92 28(F), -2(C) 25(F), -4(C) 86% 10 SCT028 BKN033 OVC055 N/A N/A N/A 20 F N/A 7892
17/11/27 11:07 330 08 N/A N/A 29.91 29(F), -2(C) 25(F), -4(C) 86% 10 SCT028 BKN033 OVC055 N/A N/A N/A 21 F N/A 7891
17/11/27 11:06 330 09 N/A N/A 29.91 29(F), -2(C) 25(F), -4(C) 86% 10 SCT028 BKN033 OVC055 N/A N/A N/A 20 F N/A 7890
17/11/27 11:05 330 09 N/A N/A 29.91 29(F), -2(C) 25(F), -4(C) 86% 10 SCT028 BKN033 OVC055 N/A N/A N/A 20 F N/A 7889
17/11/27 11:04 330 10 N/A N/A 29.91 29(F), -2(C) 25(F), -4(C) 86% 10 SCT028 BKN033 OVC055 N/A N/A N/A 20 F N/A 7888